User: anonymous   Login
Location: Lugrin
(46.4033°N, 6.6674°E)
Time: 17:20:30
(UTC+00:00)
Language:

COSMOS 2406 - Orbit

View from above orbital plane
View from above orbital plane
View from above satellite
View from above satellite

Ground track
Ground track

The orbit data is extracted from the following two-line orbital elements,

1 28352U 04021A   20338.45245972  .00000019  00000-0  36311-4 0  9999
2 28352  71.0009   2.6404 0015258 344.8101  15.2560 14.11670710849409
Epoch (UTC): 03 December 2020 10:51:32
Eccentricity: 0.0015258
inclination: 71.0009°
perigee height: 842 km
apogee height: 864 km
right ascension of ascending node: 2.6404°
argument of perigee: 344.8101°
revolutions per day: 14.11670710
mean anomaly at epoch: 15.2560°
orbit number at epoch: 84940

The dashed part of the orbit path shows where the satellite is in the earth's shadow,  

DLR